TimeCST,TemperatureF,Dew PointF,Humidity,Sea Level PressureIn,VisibilityMPH,Wind Direction,Wind SpeedMPH,Gust SpeedMPH,PrecipitationIn,Events,Conditions,WindDirDegrees,DateUTC
12:15 AM,19.4,17.6,93,29.80,2.5,SE,3.5,-,N/A,,Clear,130,2013-02-24 06:15:00
12:35 AM,17.6,17.6,100,29.80,0.8,Calm,Calm,-,N/A,,Mostly Cloudy,0,2013-02-24 06:35:00
12:55 AM,15.8,14.0,93,29.80,1.5,East,4.6,-,N/A,,Scattered Clouds,90,2013-02-24 06:55:00
1:15 AM,14.0,10.4,86,29.81,0.2,ESE,4.6,-,N/A,,Mostly Cloudy,110,2013-02-24 07:15:00
1:35 AM,17.6,15.8,93,29.81,1.8,SE,5.8,-,N/A,,Scattered Clouds,130,2013-02-24 07:35:00
1:55 AM,17.6,14.0,86,29.81,1.2,ESE,5.8,-,N/A,,Clear,120,2013-02-24 07:55:00
2:15 AM,15.8,10.4,79,29.81,0.8,East,4.6,-,N/A,,Unknown,100,2013-02-24 08:15:00
2:35 AM,14.0,12.2,93,29.81,1.2,East,4.6,-,N/A,,Clear,100,2013-02-24 08:35:00
2:55 AM,15.8,12.2,86,29.81,1.0,East,4.6,-,N/A,,Clear,100,2013-02-24 08:55:00
3:15 AM,10.4,6.8,85,29.80,0.5,Calm,Calm,-,N/A,,Mostly Cloudy,0,2013-02-24 09:15:00
3:35 AM,10.4,10.4,100,29.80,0.2,East,3.5,-,N/A,,Overcast,100,2013-02-24 09:35:00
3:55 AM,10.4,10.4,100,29.80,0.2,East,3.5,-,N/A,,Overcast,80,2013-02-24 09:55:00
4:15 AM,8.6,3.2,79,29.80,0.2,ENE,4.6,-,N/A,,Overcast,70,2013-02-24 10:15:00
4:35 AM,10.4,8.6,92,29.80,0.2,ENE,5.8,-,N/A,,Overcast,70,2013-02-24 10:35:00
4:55 AM,10.4,8.6,92,29.80,0.2,ENE,5.8,-,N/A,,Overcast,70,2013-02-24 10:55:00
5:15 AM,10.4,8.6,92,29.80,0.2,ENE,6.9,-,N/A,,Overcast,70,2013-02-24 11:15:00
5:35 AM,12.2,10.4,92,29.79,0.2,ENE,8.1,-,N/A,,Overcast,70,2013-02-24 11:35:00
5:55 AM,12.2,10.4,92,29.79,0.5,ENE,8.1,-,N/A,,Overcast,70,2013-02-24 11:55:00
6:15 AM,12.2,12.2,100,29.79,0.8,ENE,8.1,-,N/A,,Overcast,70,2013-02-24 12:15:00
6:35 AM,12.2,10.4,92,29.80,4.0,ENE,6.9,-,N/A,,Partly Cloudy,70,2013-02-24 12:35:00
6:55 AM,14.0,12.2,93,29.80,4.0,ENE,6.9,-,N/A,,Clear,70,2013-02-24 12:55:00
7:15 AM,12.2,12.2,100,29.80,4.0,ENE,6.9,-,N/A,,Clear,70,2013-02-24 13:15:00
7:35 AM,12.2,10.4,92,29.80,4.0,ENE,8.1,-,N/A,,Clear,60,2013-02-24 13:35:00
7:55 AM,12.2,10.4,92,29.81,4.0,ENE,6.9,-,N/A,,Clear,70,2013-02-24 13:55:00
8:15 AM,12.2,10.4,92,29.82,5.0,ENE,6.9,-,N/A,,Clear,60,2013-02-24 14:15:00
8:35 AM,15.8,12.2,86,29.82,5.0,ENE,9.2,-,N/A,,Clear,70,2013-02-24 14:35:00
8:55 AM,15.8,14.0,93,29.81,5.0,ENE,9.2,-,N/A,,Clear,70,2013-02-24 14:55:00
9:15 AM,17.6,17.6,100,29.81,7.0,ENE,10.4,-,N/A,,Clear,70,2013-02-24 15:15:00
9:35 AM,19.4,19.4,100,29.82,8.0,ENE,9.2,-,N/A,,Clear,70,2013-02-24 15:35:00
9:55 AM,21.2,19.4,93,29.83,8.0,NE,8.1,-,N/A,,Clear,50,2013-02-24 15:55:00
10:15 AM,21.2,19.4,93,29.83,7.0,ENE,9.2,-,N/A,,Partly Cloudy,60,2013-02-24 16:15:00
10:35 AM,23.0,21.2,93,29.83,6.0,ENE,10.4,-,N/A,,Mostly Cloudy,70,2013-02-24 16:35:00
10:55 AM,24.8,24.8,100,29.82,7.0,ENE,12.7,-,N/A,,Overcast,60,2013-02-24 16:55:00
11:15 AM,24.8,21.2,86,29.82,6.0,ENE,13.8,-,N/A,,Overcast,60,2013-02-24 17:15:00
11:35 AM,24.8,23.0,93,29.82,7.0,ENE,12.7,-,N/A,,Overcast,60,2013-02-24 17:35:00
11:55 AM,24.8,24.8,100,29.81,7.0,ENE,12.7,-,N/A,,Overcast,70,2013-02-24 17:55:00
12:15 PM,26.6,24.8,93,29.82,6.0,NE,11.5,-,N/A,,Overcast,50,2013-02-24 18:15:00
12:35 PM,26.6,24.8,93,29.81,8.0,ENE,9.2,-,N/A,,Overcast,60,2013-02-24 18:35:00
12:55 PM,28.4,26.6,93,29.82,9.0,NE,10.4,-,N/A,,Overcast,40,2013-02-24 18:55:00
1:15 PM,30.2,26.6,86,29.80,8.0,NE,12.7,-,N/A,,Overcast,50,2013-02-24 19:15:00
1:35 PM,30.2,26.6,86,29.80,9.0,NE,12.7,-,N/A,,Overcast,50,2013-02-24 19:35:00
1:55 PM,30.2,26.6,86,29.80,9.0,ENE,13.8,-,N/A,,Overcast,60,2013-02-24 19:55:00
2:15 PM,32.0,26.6,80,29.79,9.0,NE,13.8,-,N/A,,Overcast,50,2013-02-24 20:15:00
2:35 PM,33.8,26.6,75,29.78,8.0,NE,13.8,-,N/A,,Mostly Cloudy,50,2013-02-24 20:35:00
2:55 PM,32.0,26.6,80,29.79,8.0,NE,10.4,-,N/A,,Overcast,50,2013-02-24 20:55:00
3:15 PM,32.0,26.6,80,29.80,8.0,NE,11.5,-,N/A,,Overcast,50,2013-02-24 21:15:00
3:35 PM,32.0,26.6,80,29.79,8.0,NE,13.8,-,0.01,,Overcast,40,2013-02-24 21:35:00
3:55 PM,32.0,26.6,80,29.80,9.0,NE,13.8,-,0.01,,Overcast,50,2013-02-24 21:55:00
4:15 PM,32.0,26.6,80,29.80,10.0,NE,12.7,-,N/A,,Overcast,50,2013-02-24 22:15:00
4:35 PM,32.0,26.6,80,29.82,9.0,NE,10.4,-,N/A,,Overcast,50,2013-02-24 22:35:00
4:55 PM,32.0,26.6,80,29.83,9.0,NE,11.5,-,N/A,,Overcast,40,2013-02-24 22:55:00
5:15 PM,33.8,28.4,81,29.83,10.0,NE,11.5,-,N/A,,Overcast,40,2013-02-24 23:15:00
5:35 PM,33.8,28.4,81,29.84,9.0,NE,11.5,-,N/A,,Overcast,40,2013-02-24 23:35:00
5:55 PM,33.8,28.4,81,29.85,9.0,NNE,11.5,-,N/A,,Overcast,30,2013-02-24 23:55:00
6:15 PM,33.8,28.4,81,29.86,10.0,NE,11.5,-,N/A,,Overcast,40,2013-02-25 00:15:00
6:35 PM,33.8,28.4,81,29.88,10.0,NNE,11.5,-,N/A,,Overcast,20,2013-02-25 00:35:00
6:55 PM,33.8,28.4,81,29.89,10.0,NNE,12.7,-,N/A,,Overcast,30,2013-02-25 00:55:00
7:15 PM,33.8,28.4,81,29.91,10.0,NNE,10.4,-,N/A,,Overcast,20,2013-02-25 01:15:00
7:35 PM,33.8,28.4,81,29.92,10.0,North,12.7,-,N/A,,Overcast,10,2013-02-25 01:35:00
7:55 PM,33.8,28.4,81,29.93,10.0,North,12.7,-,N/A,,Overcast,360,2013-02-25 01:55:00
8:15 PM,33.8,28.4,81,29.93,10.0,North,16.1,-,N/A,,Overcast,360,2013-02-25 02:15:00
8:35 PM,32.0,28.4,87,29.94,10.0,North,16.1,-,N/A,,Overcast,360,2013-02-25 02:35:00
8:55 PM,32.0,28.4,87,29.93,8.0,NNE,19.6,-,N/A,,Overcast,20,2013-02-25 02:55:00
9:15 PM,32.0,28.4,87,29.93,8.0,NNE,18.4,-,N/A,,Overcast,20,2013-02-25 03:15:00
9:35 PM,32.0,28.4,87,29.95,7.0,NNE,16.1,-,N/A,,Overcast,20,2013-02-25 03:35:00
9:55 PM,30.2,28.4,93,29.95,7.0,NNE,17.3,-,N/A,,Overcast,20,2013-02-25 03:55:00
10:15 PM,30.2,28.4,93,29.97,7.0,North,16.1,-,N/A,,Overcast,10,2013-02-25 04:15:00
10:35 PM,30.2,26.6,86,29.96,7.0,North,18.4,-,N/A,,Overcast,10,2013-02-25 04:35:00
10:55 PM,30.2,26.6,86,29.97,6.0,North,16.1,-,N/A,,Overcast,10,2013-02-25 04:55:00
11:15 PM,30.2,28.4,93,29.97,4.0,North,18.4,-,N/A,,Overcast,360,2013-02-25 05:15:00
11:35 PM,30.2,28.4,93,29.97,3.0,North,17.3,-,N/A,,Overcast,10,2013-02-25 05:35:00
11:55 PM,30.2,28.4,93,29.96,2.5,NNE,19.6,24.2,N/A,,Overcast,20,2013-02-25 05:55:00